Regional Weather Roundup
Issued by NWS Little Rock, AR

Home | Current Version | Previous Version | Graphics & Text | Print | Product List | Glossary On
Versions: 1 2 3 4 5 6 7 8 9 10 11 12 13 14 15 16 17 18 19 20 21 22 23 24 25 26 27 28 29 30 31 32 33 34 35 36 37 38 39 40 41 42 43 44 45 46 47 48 49 50
539
ASUS44 KLZK 290505
RWRLZK

WEATHER ROUNDUP FOR ARKANSAS
NATIONAL WEATHER SERVICE LITTLE ROCK AR
1200 AM CDT SAT APR 29 2017

NOTE: "FAIR" INDICATES FEW OR NO CLOUDS BELOW 12,000 FEET WITH NO
SIGNIFICANT WEATHER AND/OR OBSTRUCTIONS TO VISIBILITY.

ARZ001-003-010-029-290600-
NORTHWEST ARKANSAS

CITY           SKY/WX    TMP DP  RH WIND       PRES   REMARKS
FAYETTEVILLE     N/A     66  66 100 MISG      29.71F THUNDER
FORT SMITH     CLOUDY    70  66  87 E5        29.67F FOG
HARRISON       CLOUDY    65  65 100 CALM      29.77R FOG
BENTONVILLE    CLOUDY    64  63  94 NE7       29.72S THUNDER
ROGERS         TSTM      63  63 100 E14       29.71F
SILOAM SPGS    CLOUDY    64  61  88 N5        29.69F THUNDER
HIGHFILL       CLOUDY    64  64 100 NE12      29.70F
$$

ARZ004-005-016-290600-
NORTH CENTRAL ARKANSAS

CITY           SKY/WX    TMP DP  RH WIND       PRES   REMARKS
BATESVILLE     PTCLDY    72  70  94 SE8       29.73F
FLIPPIN        CLOUDY   N/A N/A N/A CALM      29.72R
MTN HOME       CLOUDY    64  63  96 SE8       29.73S
$$

ARZ040-041-290600-
WEST CENTRAL ARKANSAS

CITY           SKY/WX    TMP DP  RH WIND       PRES   REMARKS
MENA           PTCLDY    81  77  89 SE10G22   29.72F HX  88
MOUNT IDA      MOCLDY    80  72  76 VRB6      29.72
$$

ARZ009-017-025-026-028-290600-
NORTHEAST ARKANSAS

CITY           SKY/WX    TMP DP  RH WIND       PRES   REMARKS
CORNING        CLOUDY    73  73 100 S6        29.75F
JONESBORO      PTCLDY    74  70  87 S9        29.76F
NEWPORT        CLEAR     76  71  85 MISG      29.74F
WALNUT RIDGE   PTCLDY    73  68  83 S3G18     29.72F
BLYTHEVILLE    CLEAR     77  70  79 S15       29.78F
$$

ARZ022-023-033-042-044-290600-
CENTRAL ARKANSAS

CITY           SKY/WX    TMP DP  RH WIND       PRES   REMARKS
LITTLE ROCK    CLOUDY    78  73  84 S13       29.75F
N LITTLE ROCK    N/A     78  72  84 S7        29.77F
JACKSONVILLE   MOCLDY    79  73  82 SE6       29.76F
CONWAY           N/A     79  73  83 S17G24    29.70F
SEARCY         CLOUDY    79  73  82 S15G22    29.77F
HOT SPRINGS    CLOUDY    79  74  84 S9G17     29.75F
RUSSELLVILLE   CLOUDY    71  69  93 SE3       29.70F
CLINTON        CLOUDY    64  64 100 CALM      29.73F FOG
$$

ARZ036-290600-
EAST ARKANSAS

CITY           SKY/WX    TMP DP  RH WIND       PRES   REMARKS
WEST MEMPHIS   CLEAR     77  71  82 S17       29.81F
$$

ARZ050-053-066-070-073-290600-
SOUTHWEST ARKANSAS

CITY           SKY/WX    TMP DP  RH WIND       PRES   REMARKS
ARKADELPHIA    CLOUDY    79  73  82 S10       29.75F
CAMDEN         MOCLDY    81  68  65 S17G24    29.76S
TEXARKANA      CLOUDY    79  73  82 S14       29.73F
EL DORADO      HAZE      80  71  74 S17G24    29.77F VSB 1
DE QUEEN       PTCLDY    79  73  82 S9G17     29.69F
$$

ARZ056-057-069-290600-
SOUTHEAST ARKANSAS

CITY           SKY/WX    TMP DP  RH WIND       PRES   REMARKS
PINE BLUFF     CLEAR     78  71  79 S16G24    29.78F
STUTTGART      PTCLDY    75  63  64 SE14      29.79F
MONTICELLO     CLEAR     79  70  74 S9G20     29.80F

$$






USA.gov is the U.S. government's official web portal to all federal, state and local government web resources and services.